Wind_Speed
26 26 14 15 14 11 10 12 6 7 6 8 10 13 18 27 27 28 28 28 29 27 29 31 29 27 27 24 22 23 34 32 34 30 26 19 23 23 24 24 23 24 27
25 19 16 16 14 15 13 14 10 11 8 11 7 15 22 26 26 26 25 27 25 25 29 37 30 29 31 27 22 19 25 30 31 28 26 22 26 25 23 23 22 22 22
19 17 26 20 19 15 14 13 14 10 12 5 8 15 21 21 21 21 23 24 23 25 32 36 29 27 33 32 27 18 13 14 23 18 21 15 25 28 22 20 23 23 22
13 19 28 26 21 21 16 10 11 14 15 4 10 14 12 15 18 19 22 21 20 26 34 31 32 33 32 38 35 32 24 25 23 24 11 8 21 25 25 21 23 22 25
10 16 32 24 25 17 14 11 12 18 7 7 6 8 11 11 15 18 21 21 22 28 33 36 34 38 41 44 36 30 25 23 21 16 13 15 22 19 23 25 23 25 27
10 28 31 27 26 22 23 26 20 16 12 9 9 12 6 9 12 17 21 22 26 27 37 44 48 30 36 34 47 37 24 21 27 24 17 14 17 20 24 28 25 25 24
21 36 24 29 29 27 25 22 12 9 8 7 9 9 5 8 8 12 19 21 23 26 42 51 44 34 39 36 49 36 25 28 21 23 20 14 13 11 14 24 19 24 26
26 34 36 32 29 20 24 22 12 3 2 12 4 6 4 6 6 8 13 21 19 22 25 32 40 41 23 31 43 39 22 13 25 23 21 22 19 14 14 16 14 20 23
9 35 29 28 28 29 22 17 17 20 17 6 10 3 2 4 7 8 10 20 17 26 26 28 19 37 42 37 36 40 25 16 20 23 22 22 25 12 9 16 18 17 21
10 19 43 29 29 29 30 26 27 29 20 16 8 3 4 3 4 10 11 18 19 22 27 33 20 38 43 44 35 26 43 38 30 33 29 28 27 23 19 14 14 22 21
15 11 40 29 28 27 24 23 13 11 15 14 10 7 5 1 4 12 11 17 19 23 24 42 27 24 36 44 34 34 36 46 46 37 35 29 25 15 14 15 21 24 27
17 13 17 34 23 24 14 11 12 17 12 12 10 7 4 5 7 11 10 15 18 21 24 29 31 33 27 25 35 34 30 31 40 38 37 35 26 15 19 16 22 24 24
19 19 16 21 31 28 22 16 12 17 16 10 8 4 11 9 10 8 10 12 17 14 10 22 19 24 24 33 29 41 33 31 33 40 42 36 32 25 14 15 18 22 25
15 21 14 29 23 19 23 22 13 17 13 9 8 8 9 8 12 9 12 8 12 18 19 28 22 21 22 25 29 37 35 29 24 43 46 41 40 33 30 24 22 21 25
15 19 14 25 32 24 17 24 17 16 15 15 13 9 4 8 8 11 13 12 10 11 19 23 26 24 22 21 26 30 34 39 34 43 47 47 42 38 33 30 27 26 28
13 17 27 21 37 29 24 21 17 23 17 17 11 6 4 6 10 14 16 16 15 11 11 14 18 18 22 17 23 26 31 31 29 31 27 33 40 38 36 35 31 27 30
9 21 29 22 35 35 26 21 20 22 17 16 9 8 8 11 9 12 18 14 12 12 8 9 11 14 13 15 18 24 25 27 26 38 35 40 38 36 31 33 33 28 29
3 14 21 23 29 38 30 29 23 26 22 16 15 10 12 13 10 7 13 18 13 11 6 5 6 7 9 12 17 16 18 20 22 27 26 29 32 34 35 33 30 31 28
2 7 17 23 28 34 36 33 32 28 18 16 19 15 14 12 9 5 6 10 11 13 10 7 9 8 6 9 11 12 14 17 18 20 19 28 25 30 30 35 37 33 33
5 6 10 18 32 34 31 29 31 29 18 15 18 17 18 15 9 5 6 6 7 6 5 7 8 11 4 4 4 7 9 10 14 14 15 24 22 23 24 26 29 33 29
4 9 13 12 24 30 31 29 31 25 26 25 22 23 16 13 8 5 8 5 4 5 4 2 4 9 11 8 1 4 2 5 9 7 12 16 12 10 9 15 14 22 26
4 11 16 22 23 31 32 30 25 23 24 22 22 23 26 22 16 12 13 14 12 6 6 5 3 5 4 10 13 6 3 5 2 1 5 8 13 13 6 15 9 13 20
6 6 17 23 28 30 36 25 27 28 31 23 27 26 19 18 18 16 17 20 18 14 15 12 6 8 9 12 13 12 10 8 5 2 3 7 7 7 5 4 5 3 9
11 9 13 20 24 25 26 29 28 26 35 27 22 23 22 22 23 22 21 22 22 23 22 21 18 9 11 11 13 16 16 14 15 12 7 7 7 8 8 8 8 4 13
17 14 12 14 23 24 24 29 37 31 27 27 30 28 26 25 27 27 29 27 27 30 28 24 21 17 16 13 12 11 15 21 21 21 16 12 11 14 14 13 12 7 6
20 21 18 15 14 22 26 25 27 30 34 35 33 34 32 30 31 31 33 36 34 27 29 27 24 21 23 21 18 18 17 16 17 19 21 20 17 12 15 15 12 14 12
Wind_Direction
297 277 267 185 175 196 209 169 209 250 269 300 324 327 346 345 342 342 342 357 352 355 352 1 13 20 22 32 35 74 73 52 50 54 73 58 75 66 64 72 60 54 54
286 257 223 165 191 205 206 197 227 268 281 268 21 21 2 346 344 345 359 3 0 1 360 16 22 34 34 35 55 84 77 64 66 76 73 80 65 55 54 65 67 68 62
285 229 192 185 180 175 217 218 220 252 225 254 8 2 347 332 349 355 14 10 9 9 11 23 32 47 45 43 61 70 46 38 18 39 75 59 63 45 49 70 62 60 61
269 213 190 183 195 201 215 217 204 209 221 85 1 334 352 352 359 19 23 23 15 14 24 41 50 57 54 49 56 66 65 51 33 37 100 14 35 53 57 61 53 50 52
266 203 180 175 187 171 192 200 196 213 192 99 61 24 359 5 7 34 35 32 25 26 39 46 51 58 53 50 50 57 64 63 42 47 54 35 25 44 58 60 52 52 49
214 169 172 173 175 166 163 168 147 146 129 85 47 21 16 13 32 50 47 38 38 44 57 56 50 51 48 52 44 42 58 58 28 34 30 20 20 63 58 50 50 41 41
188 169 173 177 185 186 181 202 194 141 122 42 21 39 33 36 56 64 48 40 55 60 65 53 45 53 60 66 45 58 60 53 23 17 27 0 351 39 54 27 50 23 33
185 181 172 195 194 190 198 169 180 202 220 306 318 19 22 42 47 80 51 47 61 62 50 37 44 39 58 55 45 53 79 61 38 24 26 23 352 334 313 344 25 22 36
186 200 190 187 208 202 193 199 232 257 270 263 277 357 6 44 42 95 59 53 60 61 42 37 46 46 56 45 39 44 69 48 20 32 27 33 9 342 9 75 48 32 33
169 182 192 187 198 212 232 235 247 253 250 250 210 173 97 57 83 100 73 61 78 60 50 45 60 56 48 43 49 29 35 39 37 30 33 38 27 60 90 89 64 47 37
160 186 200 176 216 221 237 235 220 198 161 156 146 151 118 92 109 104 76 87 83 60 59 57 55 43 31 28 48 48 38 33 30 25 31 42 42 73 84 83 64 43 38
186 140 175 202 184 168 172 146 151 143 155 151 169 138 171 139 100 100 94 112 93 75 59 53 56 48 37 46 35 31 37 7 30 32 36 41 53 90 85 67 50 44 49
195 198 189 185 199 197 215 208 153 141 161 154 150 190 159 121 102 110 116 118 114 77 53 43 50 65 47 56 49 49 55 53 45 39 38 46 53 63 76 70 44 51 67
190 193 191 179 169 202 211 201 166 138 176 152 142 161 185 126 118 145 126 118 140 73 78 68 83 72 56 48 48 59 57 57 37 44 49 50 57 56 57 63 67 71 75
186 175 153 179 179 185 187 175 166 168 172 157 143 170 121 108 107 158 132 119 119 91 75 70 72 76 64 57 51 57 54 56 70 62 55 51 54 62 66 70 70 72 74
185 193 175 191 198 197 194 174 164 173 171 165 194 214 192 134 129 161 143 134 109 112 81 71 76 73 71 67 60 64 61 62 56 40 49 46 46 59 66 71 77 65 63
216 203 201 188 197 202 205 189 181 183 177 187 195 213 201 158 154 155 177 167 125 106 92 100 86 78 75 71 63 63 63 60 58 62 57 63 57 61 54 64 73 68 63
192 210 212 210 196 197 200 193 179 190 174 185 170 180 161 140 129 171 192 194 195 166 142 122 130 111 101 86 74 70 69 60 53 47 53 60 57 58 62 60 64 69 70
202 211 205 206 204 193 195 201 213 211 193 195 185 200 211 176 154 148 192 183 165 176 189 192 183 166 137 97 100 90 79 72 59 53 56 49 66 60 63 68 70 61 68
208 214 223 208 200 201 203 200 215 194 188 190 208 218 221 204 164 158 148 176 164 163 207 199 199 195 191 152 116 92 100 87 70 59 52 62 56 50 61 64 76 80 71
245 187 185 177 180 185 191 192 192 191 192 188 206 222 198 210 201 214 195 195 157 172 211 220 216 206 218 208 102 147 129 68 93 51 43 61 45 326 34 57 69 79 65
253 208 193 194 197 192 190 186 188 201 200 217 225 235 235 235 245 232 227 239 240 245 231 241 250 229 275 230 244 231 311 52 170 111 12 20 52 80 340 318 35 46 42
230 249 207 197 203 206 202 195 212 210 203 211 224 233 244 243 243 249 233 235 244 244 250 257 267 241 265 254 249 246 237 253 287 306 281 347 33 48 44 93 348 108 7
232 235 214 212 208 213 219 204 204 215 215 230 232 239 244 250 250 254 242 249 251 246 250 253 250 240 255 265 266 248 255 260 270 273 281 275 296 305 317 331 45 88 21
217 233 232 215 219 218 220 210 207 216 221 223 227 231 239 245 250 248 249 256 259 253 248 249 240 241 246 269 274 272 284 283 275 270 270 264 273 293 302 319 333 351 27
227 228 227 235 233 227 223 222 226 232 235 235 231 231 243 247 249 251 252 255 250 254 252 251 243 243 244 245 256 261 262 272 279 279 272 271 262 254 285 292 302 306 325
Height
10981 10981 10982 10984 10987 10991 10996 11002 11006 11010 11011 11013 11013 11014 11012 11008 11004 11001 10998 10994 10987 10981 10976 10971 10966 10960 10955 10947 10943 10940 10937 10934 10933 10929 10927 10927 10927 10929 10924 10919 10917 10914 10911
10976 10977 10981 10982 10987 10991 10995 11002 11006 11009 11012 11014 11014 11013 11011 11009 11006 11003 10999 10994 10988 10983 10977 10974 10967 10960 10954 10947 10942 10941 10942 10939 10935 10933 10932 10931 10931 10931 10928 10923 10920 10916 10914
10969 10972 10978 10982 10985 10989 10995 11000 11005 11009 11012 11013 11013 11011 11010 11009 11007 11004 11000 10995 10991 10987 10981 10976 10966 10960 10955 10947 10944 10945 10943 10941 10939 10938 10936 10936 10933 10931 10929 10927 10924 10921 10918
10965 10967 10974 10980 10984 10989 10995 11002 11005 11008 11011 11011 11011 11011 11010 11008 11007 11004 11001 10997 10994 10989 10984 10978 10970 10962 10957 10953 10951 10946 10945 10945 10941 10939 10938 10939 10937 10935 10933 10931 10929 10926 10923
10961 10963 10972 10978 10983 10989 10995 11000 11003 11007 11010 11011 11011 11011 11010 11009 11008 11005 11003 11000 10997 10993 10987 10981 10975 10967 10963 10959 10953 10950 10949 10946 10945 10941 10943 10943 10941 10937 10935 10932 10933 10929 10925
10962 10966 10972 10976 10981 10986 10995 10997 11000 11004 11009 11010 11010 11011 11010 11009 11008 11007 11005 11002 10999 10996 10991 10984 10980 10973 10970 10965 10959 10955 10949 10949 10946 10946 10944 10941 10942 10938 10936 10936 10938 10936 10929
10966 10969 10974 10978 10981 10987 10993 10996 10999 11003 11007 11009 11010 11012 11010 11009 11008 11008 11006 11004 11001 10998 10993 10986 10984 10978 10973 10968 10964 10958 10956 10956 10954 10949 10944 10943 10942 10941 10939 10939 10941 10938 10932
10966 10970 10975 10980 10985 10989 10992 10993 10996 11001 11005 11009 11012 11013 11010 11010 11009 11009 11007 11006 11003 11001 10995 10990 10987 10982 10977 10972 10969 10966 10962 10956 10951 10948 10944 10942 10940 10940 10941 10942 10945 10940 10933
10964 10968 10974 10978 10983 10991 10994 10994 10997 10999 11004 11008 11012 11014 11011 11010 11009 11009 11009 11009 11007 11003 10998 10991 10988 10985 10985 10982 10977 10971 10969 10962 10958 10951 10947 10942 10940 10938 10942 10944 10945 10939 10934
10961 10963 10969 10978 10980 10986 10995 10997 10997 10999 11004 11008 11012 11013 11011 11009 11009 11011 11012 11013 11010 11004 11001 10995 10991 10988 10988 10982 10978 10976 10972 10966 10963 10954 10947 10941 10942 10941 10944 10945 10944 10940 10937
10964 10964 10969 10975 10981 10986 10994 10996 10997 10999 11003 11006 11011 11012 11011 11010 11010 11012 11015 11015 11013 11010 11005 11001 10993 10989 10989 10988 10980 10976 10974 10968 10961 10956 10953 10946 10948 10947 10947 10948 10947 10943 10939
10964 10968 10966 10973 10982 10986 10992 10996 10998 10999 11003 11006 11010 11011 11011 11010 11011 11014 11016 11016 11017 11012 11008 11004 10996 10987 10991 10992 10988 10980 10974 10970 10966 10962 10953 10952 10951 10950 10949 10950 10946 10943 10942
10961 10961 10962 10969 10976 10984 10992 10998 11000 11000 11002 11006 11009 11010 11011 11009 11012 11014 11016 11017 11019 11015 11011 11009 11003 10996 10999 10997 10992 10989 10983 10977 10975 10969 10962 10957 10953 10952 10949 10950 10948 10946 10946
10962 10963 10965 10971 10977 10984 10991 10997 11001 11000 11003 11006 11008 11010 11011 11010 11012 11015 11016 11018 11021 11020 11016 11011 11007 11007 11004 11002 11004 10996 10991 10986 10981 10979 10969 10967 10960 10957 10953 10952 10952 10953 10951
10963 10965 10969 10973 10978 10985 10991 10996 10999 11000 11003 11006 11008 11010 11008 11009 11014 11016 11016 11019 11021 11022 11021 11016 11015 11015 11011 11010 11007 11004 10996 10992 10989 10984 10977 10973 10967 10963 10963 10962 10962 10963 10962
10965 10967 10972 10976 10980 10986 10990 10995 10997 11001 11004 11005 11007 11009 11008 11009 11013 11018 11018 11021 11022 11022 11022 11020 11019 11019 11016 11016 11008 11005 11000 11002 10996 10991 10985 10974 10978 10976 10974 10969 10969 10973 10972
10964 10968 10971 10976 10981 10984 10989 10992 10996 11001 11004 11005 11006 11008 11009 11009 11013 11016 11019 11021 11021 11023 11023 11022 11023 11023 11022 11018 11015 11008 11007 11007 11002 10998 10993 10993 10990 10985 10982 10977 10974 10976 10976
10963 10965 10968 10973 10978 10982 10987 10991 10996 11000 11003 11004 11006 11007 11008 11009 11012 11016 11019 11020 11022 11023 11025 11023 11024 11025 11024 11019 11015 11013 11011 11007 11003 11002 11000 11002 10998 10995 10992 10987 10984 10982 10982
10962 10962 10966 10969 10974 10980 10985 10990 10994 11000 10999 11002 11004 11008 11010 11011 11012 11014 11016 11017 11020 11023 11024 11025 11024 11024 11022 11021 11021 11019 11016 11012 11011 11009 11008 11008 11005 11004 11001 10996 10993 10997 10993
10962 10962 10964 10965 10971 10977 10982 10988 10992 10996 10997 11000 11002 11006 11009 11010 11011 11014 11014 11015 11018 11021 11021 11022 11024 11025 11022 11023 11023 11021 11018 11018 11017 11014 11009 11012 11010 11010 11009 11007 11004 10998 11003
10963 10962 10962 10966 10971 10976 10982 10986 10988 10992 10996 10999 11002 11004 11005 11007 11010 11013 11015 11016 11017 11019 11019 11020 11023 11022 11019 11020 11021 11020 11019 11020 11022 11017 11013 11011 11012 11012 11016 11014 11010 11005 11003
10961 10962 10963 10966 10971 10976 10981 10985 10988 10992 10995 10998 11000 11002 11003 11005 11008 11011 11013 11014 11016 11019 11018 11019 11021 11021 11019 11017 11020 11021 11020 11019 11021 11018 11013 11009 11011 11014 11016 11018 11016 11012 11010
10960 10961 10961 10964 10968 10972 10978 10983 10985 10989 10993 10997 10997 10998 11000 11003 11005 11009 11010 11010 11013 11016 11016 11017 11019 11020 11018 11018 11018 11020 11021 11020 11020 11018 11014 11012 11013 11013 11016 11018 11016 11011 11012
10957 10960 10962 10963 10966 10970 10974 10980 10983 10987 10990 10993 10995 10997 10998 10999 11002 11005 11006 11006 11009 11012 11014 11014 11015 11016 11016 11015 11014 11014 11016 11017 11018 11019 11017 11016 11015 11015 11016 11014 11013 11012 11011
10955 10957 10959 10962 10965 10968 10971 10975 10980 10983 10986 10989 10991 10993 10995 10996 10998 11001 11002 11004 11006 11006 11009 11011 11012 11013 11013 11011 11011 11011 11012 11011 11013 11015 11016 11018 11018 11013 11013 11010 11010 11011 11013
10950 10954 10956 10959 10962 10964 10968 10971 10974 10978 10981 10984 10987 10989 10991 10992 10994 10996 10998 10999 11002 11002 11004 11007 11009 11010 11011 11010 11009 11008 11009 11010 11009 11011 11012 11012 11014 11016 11010 11009 11009 11010 11011